星链-4491 (STARLINK-4491 )

导读 | 星芒AI

STARLINK-4491 是 SpaceX 星链计划中的一颗低轨通信卫星,属于第 18 批星链卫星发射任务(2021 年 11 月)。它运行在约 550 公里的近地轨道,旨在为全球提供高速互联网服务。该卫星采用先进的相控阵天线和激光通信技术,支持高带宽、低延迟的通信连接。作为星链星座的一部分,STARLINK-4491 有助于扩大覆盖范围,提升网络性能,特别是在偏远和网络基础设施薄弱的地区。

基本信息
目录编号:
53408
目录名称:
STARLINK-4491
国际标识:
2022-097W
轨道中心:
EARTH
卫星名称:
星链-4491
卫星全名:
星链-4491 (STARLINK-4491 )
卫星状态:
在轨 (已飞行1229 天)
发射日期:
2022-08-10 UTC
国别 :
美国 (US)
星等 :
--
轨道信息
数据来源 国际轨道数据 AOE轨道数据
星历时间 2025-12-20T22:56:39+0800
18小时前
查看轨道信息
2025-12-17T10:00:00+0800
4天前
查看轨道信息
半长轴 6917.847km 6917.883km
偏心率 0.000103 0.0002009
轨道倾角 53.217° 53.216°
近地点辐角 72.194° 68.585°
升交点赤经 109.070° 124.965°
平近点角 287.916° 136.054°
近地点 538.997km 538.358km
远地点 540.423km 541.138km
周期 95.437分钟 95.438分钟
每日圈数 15.088511 15.088394
详细信息
固有亮度:
5
最大亮度:
2.5
卫星平台:
Starlink v1.5
覆盖范围:
全球
运营商:
太空探索技术公司
运营商所在国:
美国
制造商(研发单位):
太空探索技术公司
制造商所在国:
美国
使用方式:
暂无
卫星简介
星链(Starlink)计划是由太空探索技术公司(SpaceX)提出的一个巨型低轨卫星互联网星座项目,计划在2019年至2024年间在太空搭建由约1.2万颗卫星组成的“星链”网络,其中1584颗将部署在地球上空550千米处的近地轨道,并从2020年开始工作。该卫星仍在工作。
2D轨道图
3D轨道图
轨道高度分析图
轨道倾角分析图
轨道综合分析图
查看轨道综合分析图